Content
SEND FEEDBACK

Daily
Averages
Monthly
Summary
United States of America

GLENS FALLS, NEW YORK


Home > North America > United States > New York
Elevation: 321 feet     Latitude: 43 21N     Longitude: 073 37W

WEATHER
 
SELECT A DAY
Number of Records: 216,072;   Date Range: 1/1/95 - 9/30/14
 
SHARE

PRINT THIS DATA

[ ← Previous Day ]
WEATHER ALMANAC - JUNE 26, 2013
[ Next Day → ]
[ °C ]   °F
We're sorry. There is no daily almanac available for Glens Falls, New York on June 26, 2013.
WEATHER BY HOUR - JUNE 26, 2013
[ °C ]   °F
Local TimeTemperatureDewpointHumidityBarometerVisibilityWind DirectionWind SpeedGust SpeedPrecipitationEventsConditions
12:11 AM69.8 °F68.0 °F94 %29.78 in1.5 miNE (50°)4.6 mphScattered Clouds
12:13 AM69.8 °F68.0 °F94 %29.77 in3.0 miENE (70°)3.5 mphScattered Clouds
12:33 AM69.8 °F68.0 °F94 %29.77 in3.0 miCalmMostly Cloudy
12:37 AM69.8 °F68.0 °F94 %29.77 in2.5 miCalmScattered Clouds
12:41 AM68.0 °F66.2 °F94 %29.77 in0.8 miSW (220°)3.5 mphMist
12:49 AM68.0 °F66.2 °F94 %29.77 in0.5 miCalmFogFog
12:53 AM69.1 °F68.0 °F96 %29.76 in1.5 miCalmScattered Clouds
12:57 AM68.0 °F66.2 °F94 %29.77 in3.0 miCalmPartly Cloudy
1:03 AM68.0 °F66.2 °F94 %29.77 in1.8 miCalmPartly Cloudy
1:06 AM66.2 °F66.2 °F100 %29.77 in0.8 miCalmMist
1:40 AM66.2 °F64.4 °F94 %29.76 in1.2 miCalmPartly Cloudy
1:46 AM68.0 °F66.2 °F94 %29.76 in3.0 miCalmPartly Cloudy
1:53 AM66.9 °F66.0 °F97 %29.75 in4.0 miCalmPartly Cloudy
2:28 AM66.2 °F64.4 °F94 %29.75 in1.2 miCalmPartly Cloudy
2:34 AM64.4 °F64.4 °F100 %29.75 in0.2 miCalmFogFog
2:53 AM64.9 °F64.0 °F97 %29.74 in0.5 miESE (110°)4.6 mphFogFog
2:58 AM66.2 °F64.4 °F94 %29.75 in1.5 miCalmScattered Clouds
3:04 AM64.4 °F64.4 °F100 %29.75 in0.8 miSouth (190°)3.5 mphMist
3:14 AM66.2 °F64.4 °F94 %29.75 in1.2 miCalmPartly Cloudy
3:18 AM66.2 °F64.4 °F94 %29.75 in3.0 miCalmPartly Cloudy
3:40 AM66.2 °F64.4 °F94 %29.75 in2.5 miCalmClear
3:53 AM66.0 °F64.9 °F96 %29.75 in2.5 miCalmScattered Clouds
4:07 AM64.4 °F64.4 °F100 %29.75 in0.8 miCalmMostly Cloudy
4:14 AM66.2 °F64.4 °F94 %29.76 in0.8 miCalmMostly Cloudy
4:18 AM66.2 °F64.4 °F94 %29.76 in2.0 miCalmMostly Cloudy
4:31 AM66.2 °F64.4 °F94 %29.76 in4.0 miCalmMostly Cloudy
4:53 AM66.9 °F64.9 °F93 %29.75 in4.0 miCalmMostly Cloudy
5:05 AM66.2 °F64.4 °F94 %29.76 in1.8 miCalmScattered Clouds
5:38 AM66.2 °F66.2 °F100 %29.76 in2.5 miENE (60°)4.6 mphOvercast
5:53 AM68.0 °F66.9 °F96 %29.76 in2.0 miCalmMostly Cloudy
6:08 AM68.0 °F66.2 °F94 %29.76 in1.8 miCalmMostly Cloudy
6:19 AM68.0 °F66.2 °F94 %29.76 in2.0 miCalmMostly Cloudy
6:53 AM69.1 °F66.9 °F93 %29.78 in2.0 miCalmOvercast
7:01 AM68.0 °F66.2 °F94 %29.78 in1.5 miCalmOvercast
7:10 AM69.8 °F66.2 °F88 %29.78 in1.8 miCalmOvercast
7:53 AM69.1 °F68.0 °F96 %29.78 in1.5 miCalm0.00 inOvercast
8:53 AM69.1 °F68.0 °F96 %29.79 in2.0 miCalm0.03 inRainLight Rain
9:10 AM69.8 °F68.0 °F94 %29.79 in3.0 miCalm0.00 inRainLight Rain
9:48 AM71.6 °F69.8 °F94 %29.79 in2.5 miSouth (190°)3.5 mph0.00 inRainLight Rain
9:53 AM71.1 °F69.1 °F93 %29.78 in2.5 miSouth (190°)3.5 mph0.00 inRainLight Rain
10:10 AM71.6 °F69.8 °F94 %29.79 in1.5 miCalm0.02 inRainLight Rain
10:24 AM71.6 °F69.8 °F94 %29.80 in2.0 miCalm0.03 inRainLight Rain
10:31 AM71.6 °F69.8 °F94 %29.80 in1.5 miCalm0.04 inRainRain
10:45 AM71.6 °F69.8 °F94 %29.80 in2.5 miSouth (170°)4.6 mph0.05 inRainLight Rain
10:53 AM72.0 °F70.0 °F93 %29.80 in3.0 miSSW (200°)3.5 mph0.05 inRainLight Rain
11:05 AM71.6 °F69.8 °F94 %29.80 in2.5 miSouth (170°)3.5 mph0.01 inRainLight Rain
11:13 AM71.6 °F69.8 °F94 %29.80 in2.5 miSouth (180°)4.6 mph0.01 inRainLight Rain
11:22 AM71.6 °F69.8 °F94 %29.80 in3.0 miSouth (170°)4.6 mph0.01 inRainLight Rain
11:48 AM71.6 °F69.8 °F94 %29.80 in2.5 miSouth (190°)5.8 mph0.01 inRainLight Rain
11:53 AM72.0 °F70.0 °F93 %29.80 in2.5 miSouth (190°)5.8 mph0.02 inRainLight Rain
12:16 PM71.6 °F69.8 °F94 %29.80 in3.0 miSouth (180°)4.6 mph0.01 inRainLight Rain
12:53 PM73.0 °F71.1 °F93 %29.80 in5.0 miSSE (160°)5.8 mph0.01 inRainLight Rain
12:57 PM73.4 °F69.8 °F88 %29.80 in5.0 miSSE (150°)5.8 mph0.00 inRainLight Rain
1:07 PM73.4 °F69.8 °F88 %29.80 in6.0 miSSE (150°)5.8 mph0.00 inOvercast
1:41 PM69.8 °F66.2 °F88 %29.81 in2.0 miNorth (350°)3.5 mph0.05 inRainRain
1:53 PM70.0 °F68.0 °F93 %29.81 in6.0 miNorth (10°)4.6 mph0.06 inRainLight Rain
1:58 PM71.6 °F68.0 °F88 %29.81 in9.0 miNE (40°)3.5 mph0.00 inRainLight Rain
2:53 PM72.0 °F68.0 °F87 %29.81 in10.0 miEast (80°)4.6 mph0.00 inOvercast
3:53 PM75.9 °F69.1 °F79 %29.79 in10.0 miSE (140°)4.6 mphClear
4:53 PM77.0 °F66.9 °F71 %29.78 in10.0 miCalmMostly Cloudy
5:53 PM78.1 °F66.0 °F66 %29.78 in10.0 miSouth (170°)3.5 mphClear
6:53 PM78.1 °F68.0 °F71 %29.78 in10.0 miSouth (180°)5.8 mphMostly Cloudy
7:53 PM75.9 °F69.1 °F79 %29.78 in10.0 miCalmScattered Clouds
8:53 PM70.0 °F69.1 °F97 %29.78 in6.0 miCalmClear
9:53 PM68.0 °F66.9 °F96 %29.80 in1.0 miCalmClear
10:03 PM66.2 °F66.2 °F100 %29.80 in0.8 miCalmClear
10:16 PM66.2 °F66.2 °F100 %29.80 in3.0 miCalmClear
10:47 PM66.2 °F66.2 °F100 %29.80 in0.8 miCalmClear
10:53 PM66.9 °F66.0 °F97 %29.80 in1.2 miCalmClear
10:56 PM66.2 °F64.4 °F94 %29.80 in3.0 miCalmClear
11:11 PM66.2 °F64.4 °F94 %29.80 in1.8 miCalmClear
11:27 PM66.2 °F64.4 °F94 %29.80 in3.0 miCalmClear
11:44 PM64.4 °F64.4 °F100 %29.80 in1.8 miCalmScattered Clouds
11:51 PM66.2 °F64.4 °F94 %29.81 in1.0 miCalmMist
11:53 PM66.0 °F64.9 °F96 %29.81 in1.2 miCalmMostly Cloudy
Hourly data recorded from KGFL, located miles away from Glens Falls, New York







STORIES FROM OUR PARTNERS